K5SVV Weather Reports


Display with metric or nautical units.
time (UTC)temp
F
wind
direction
speed
MPH
gust
MPH
rain 1hr
in
rain 24hr
in
rain mn
in
humidity
%
barometer
mb
20260906181103 96 142 2.0 2.0 0.00 0.00 0.00 50 1012.9
20260906180557 95 177 2.0 2.0 0.00 0.00 0.00 52 1012.9
20260906180056 96 151 2.0 4.0 0.00 0.00 0.00 53 1013.1
20260906175555 96 50 2.0 3.0 0.00 0.00 0.00 51 1013.1
20260906175051 95 143 1.0 1.0 0.00 0.00 0.00 52 1013.3
20260906174548 96 154 4.0 6.0 0.00 0.00 0.00 52 1013.2
20260906174044 95 127 2.0 2.0 0.00 0.00 0.00 52 1013.4
20260906173538 94 91 1.0 2.0 0.00 0.00 0.00 54 1013.4
20260906173034 95 15 5.0 6.0 0.00 0.00 0.00 53 1013.4
20260906172529 95 182 4.0 4.0 0.00 0.00 0.00 52 1013.7
20260906172024 95 52 3.0 4.0 0.00 0.00 0.00 53 1013.7
20260906171519 94 181 4.0 4.0 0.00 0.00 0.00 54 1013.7
20260906171014 94 152 3.0 4.0 0.00 0.00 0.00 53 1014.0
20260906170510 94 39 4.0 6.0 0.00 0.00 0.00 55 1014.0
20260906170009 94 96 2.0 3.0 0.00 0.00 0.00 56 1014.1
20260906165506 93 174 0.0 1.0 0.00 0.00 0.00 57 1014.0
20260906165001 93 177 2.0 3.0 0.00 0.00 0.00 57 1014.5
20260906164500 93 193 2.0 2.0 0.00 0.00 0.00 59 1014.2
20260906163957 94 178 5.0 6.0 0.00 0.00 0.00 58 1014.0
20260906163452 93 144 0.0 0.0 0.00 0.00 0.00 59 1014.1
20260906162950 92 165 3.0 4.0 0.00 0.00 0.00 60 1014.2
20260906162449 92 173 2.0 3.0 0.00 0.00 0.00 62 1014.1
20260906161943 92 195 1.0 2.0 0.00 0.00 0.00 61 1014.1
20260906161438 92 23 3.0 3.0 0.00 0.00 0.00 61 1014.4
20260906160937 93 177 1.0 1.0 0.00 0.00 0.00 61 1014.4
20260906160430 92 104 1.0 2.0 0.00 0.00 0.00 63 1014.4
20260906155929 92 165 1.0 2.0 0.00 0.00 0.00 64 1014.2
20260906155422 90 37 0.0 1.0 0.00 0.00 0.00 67 1014.2
20260906154919 90 131 2.0 2.0 0.00 0.00 0.00 67 1014.2
20260906154413 90 161 4.0 4.0 0.00 0.00 0.00 66 1014.4
20260906153912 89 56 0.0 1.0 0.00 0.00 0.00 69 1014.1
20260906153410 89 167 2.0 2.0 0.00 0.00 0.00 68 1014.4
20260906152906 89 189 0.0 1.0 0.00 0.00 0.00 70 1014.2
20260906152401 88 347 0.0 0.0 0.00 0.00 0.00 71 1014.0
20260906151900 88 150 0.0 0.0 0.00 0.00 0.00 70 1013.9
20260906151356 88 161 0.0 0.0 0.00 0.00 0.00 70 1014.2
20260906150851 87 157 0.0 0.0 0.00 0.00 0.00 72 1014.0
20260906150347 86 166 0.0 0.0 0.00 0.00 0.00 74 1014.1
20260906145846 86 189 2.0 3.0 0.00 0.00 0.00 74 1014.1
20260906145345 86 127 0.0 1.0 0.00 0.00 0.00 73 1014.1
20260906144840 86 161 0.0 0.0 0.00 0.00 0.00 74 1014.0
20260906144334 85 189 1.0 2.0 0.00 0.00 0.00 76 1013.9
20260906143834 85 171 0.0 1.0 0.00 0.00 0.00 76 1014.0
20260906143325 84 186 1.0 2.0 0.00 0.00 0.00 78 1014.0
20260906142821 83 169 2.0 2.0 0.00 0.00 0.00 79 1014.0
20260906142321 83 162 2.0 3.0 0.00 0.00 0.00 79 1013.9
20260906141815 83 131 2.0 3.0 0.00 0.00 0.00 80 1013.9
20260906141310 83 160 2.0 3.0 0.00 0.00 0.00 80 1013.7
20260906140808 83 165 0.0 0.0 0.00 0.00 0.00 80 1014.0
20260906140304 82 168 0.0 0.0 0.00 0.00 0.00 81 1014.0
20260906135801 81 172 1.0 2.0 0.00 0.00 0.00 82 1014.1
20260906135256 82 162 1.0 2.0 0.00 0.00 0.00 82 1013.9
20260906134752 82 182 1.0 2.0 0.00 0.00 0.00 82 1013.7
20260906134247 81 135 0.0 0.0 0.00 0.00 0.00 83 1013.6
20260906133742 80 140 0.0 0.0 0.00 0.00 0.00 85 1013.5
20260906133238 80 165 0.0 0.0 0.00 0.00 0.00 87 1013.7
20260906132733 79 165 0.0 0.0 0.00 0.00 0.00 89 1013.5
20260906132228 78 177 0.0 0.0 0.00 0.00 0.00 91 1013.8
20260906131724 77 143 0.0 0.0 0.00 0.00 0.00 92 1013.6
20260906131218 77 176 0.0 0.0 0.00 0.00 0.00 93 1013.6
20260906130713 76 186 0.0 0.0 0.00 0.00 0.00 94 1013.7
20260906130203 76 187 0.0 0.0 0.00 0.00 0.00 95 1013.8
20260906125702 75 187 0.0 0.0 0.00 0.00 0.00 95 1013.6
20260906125200 75 187 0.0 0.0 0.00 0.00 0.00 95 1013.3
20260906124655 75 187 0.0 0.0 0.00 0.00 0.00 95 1013.1
20260906124151 74 187 0.0 0.0 0.00 0.00 0.00 95 1013.3
20260906123649 74 188 0.0 0.0 0.00 0.00 0.00 94 1013.4
20260906123145 74 188 0.0 0.0 0.00 0.00 0.00 94 1013.3
20260906122644 74 188 0.0 0.0 0.00 0.00 0.00 94 1013.1
20260906122140 74 188 0.0 0.0 0.00 0.00 0.00 94 1013.0
20260906121635 74 188 0.0 0.0 0.00 0.00 0.00 94 1013.2
20260906121127 74 188 0.0 0.0 0.00 0.00 0.00 94 1013.1
20260906120621 74 188 0.0 0.0 0.00 0.00 0.00 93 1013.1
20260906120119 74 188 0.0 0.0 0.00 0.00 0.00 93 1012.9
20260906115619 74 188 0.0 0.0 0.00 0.00 0.00 93 1013.1
20260906115114 74 188 0.0 0.0 0.00 0.00 0.00 93 1013.2
20260906114608 74 188 0.0 0.0 0.00 0.00 0.00 93 1012.9
20260906114103 74 188 0.0 0.0 0.00 0.00 0.00 93 1012.8
20260906113603 74 188 0.0 0.0 0.00 0.00 0.00 93 1012.9
20260906113058 75 188 0.0 0.0 0.00 0.00 0.00 93 1012.7
20260906112557 75 188 0.0 0.0 0.00 0.00 0.00 93 1013.0
20260906112055 75 188 0.0 0.0 0.00 0.00 0.00 93 1012.9
20260906111554 75 188 0.0 0.0 0.00 0.00 0.00 93 1012.9
20260906111049 75 187 0.0 0.0 0.00 0.00 0.00 92 1012.7
20260906110549 75 188 0.0 0.0 0.00 0.00 0.00 92 1012.7
20260906110048 74 188 0.0 0.0 0.00 0.00 0.00 92 1012.5
20260906105543 74 188 0.0 0.0 0.00 0.00 0.00 92 1012.5
20260906105039 74 188 0.0 0.0 0.00 0.00 0.00 92 1012.6
20260906104537 75 188 0.0 0.0 0.00 0.00 0.00 91 1012.6
20260906104032 75 188 0.0 0.0 0.00 0.00 0.00 91 1012.5
20260906103531 75 188 0.0 0.0 0.00 0.00 0.00 91 1012.4
20260906103026 75 188 0.0 0.0 0.00 0.00 0.00 91 1012.7
20260906102526 75 188 0.0 0.0 0.00 0.00 0.00 91 1012.3
20260906102021 75 188 0.0 0.0 0.00 0.00 0.00 91 1012.3
20260906101516 75 188 0.0 0.0 0.00 0.00 0.00 90 1012.3
20260906101010 75 188 0.0 0.0 0.00 0.00 0.00 90 1012.2
20260906100506 75 188 0.0 0.0 0.00 0.00 0.00 90 1012.2
20260906100000 75 188 0.0 0.0 0.00 0.00 0.00 89 1012.1
20260906095455 75 188 0.0 0.0 0.00 0.00 0.00 89 1012.2
20260906094950 76 188 0.0 0.0 0.00 0.00 0.00 89 1012.0
20260906094449 76 188 0.0 0.0 0.00 0.00 0.00 88 1012.0
20260906093946 76 188 0.0 0.0 0.00 0.00 0.00 88 1011.7
20260906093441 76 188 0.0 0.0 0.00 0.00 0.00 88 1012.1
20260906092936 77 188 0.0 0.0 0.00 0.00 0.00 88 1011.9
20260906092436 77 188 0.0 0.0 0.00 0.00 0.00 88 1011.7
20260906091931 77 188 0.0 0.0 0.00 0.00 0.00 88 1011.9
20260906091427 77 187 0.0 0.0 0.00 0.00 0.00 88 1011.7
20260906090923 77 188 0.0 0.0 0.00 0.00 0.00 88 1011.5
20260906090418 77 188 0.0 0.0 0.00 0.00 0.00 88 1011.7
20260906085912 77 187 0.0 0.0 0.00 0.00 0.00 87 1011.7
20260906085406 77 187 0.0 0.0 0.00 0.00 0.00 87 1011.8
20260906084906 77 187 0.0 0.0 0.00 0.00 0.00 87 1011.5
20260906084406 77 187 0.0 0.0 0.00 0.00 0.00 87 1011.6
20260906083900 77 187 0.0 0.0 0.00 0.00 0.00 87 1011.6
20260906083355 77 187 0.0 0.0 0.00 0.00 0.00 87 1011.5
20260906082855 77 187 0.0 0.0 0.00 0.00 0.00 86 1011.8
20260906082350 77 187 0.0 0.0 0.00 0.00 0.00 86 1012.0
20260906081846 78 187 0.0 0.0 0.00 0.00 0.00 86 1011.9
20260906081347 78 187 0.0 0.0 0.00 0.00 0.00 86 1012.0
20260906080843 78 186 0.0 0.0 0.00 0.00 0.00 85 1012.2
20260906080339 78 186 0.0 0.0 0.00 0.00 0.00 85 1011.8
20260906075838 78 186 0.0 0.0 0.00 0.00 0.00 85 1012.2
20260906075333 78 186 0.0 0.0 0.00 0.00 0.00 85 1011.8
20260906074829 79 200 0.0 0.0 0.00 0.00 0.00 84 1011.9
20260906074328 79 200 1.0 1.0 0.00 0.00 0.00 84 1012.0
20260906073827 79 200 1.0 1.0 0.00 0.00 0.00 84 1012.0
20260906073322 79 207 2.0 2.0 0.00 0.00 0.00 84 1011.6
20260906072818 79 217 2.0 3.0 0.00 0.00 0.00 84 1011.9
20260906072314 79 185 3.0 3.0 0.00 0.00 0.00 84 1011.9
20260906071810 79 204 4.0 6.0 0.00 0.00 0.00 84 1012.0
20260906071305 79 197 3.0 3.0 0.00 0.00 0.00 85 1011.9
20260906070801 79 206 4.0 6.0 0.00 0.00 0.00 85 1012.0
20260906070257 79 214 2.0 2.0 0.00 0.00 0.00 85 1012.2
20260906065756 79 202 2.0 2.0 0.00 0.00 0.00 85 1012.3
20260906065251 79 194 2.0 3.0 0.00 0.00 0.00 85 1012.3
20260906064747 79 199 1.0 1.0 0.00 0.00 0.00 85 1012.3
20260906064243 79 196 2.0 2.0 0.00 0.00 0.00 85 1012.3
20260906063738 79 179 0.0 0.0 0.00 0.00 0.00 85 1012.2
20260906063233 79 186 1.0 1.0 0.00 0.00 0.00 85 1012.5
20260906062728 79 191 2.0 2.0 0.00 0.00 0.00 85 1012.5
20260906062227 79 177 2.0 2.0 0.00 0.00 0.00 85 1012.6
20260906061723 79 200 1.0 2.0 0.00 0.00 0.00 85 1012.4
20260906061220 79 185 0.0 0.0 0.00 0.00 0.00 84 1012.8
20260906060715 80 185 0.0 0.0 0.00 0.00 0.00 84 1012.8
20260906060212 80 185 0.0 0.0 0.00 0.00 0.00 84 1012.5
20260906055707 80 186 0.0 0.0 0.00 0.00 0.00 84 1012.7
20260906055203 80 186 0.0 0.0 0.00 0.00 0.00 83 1012.4
20260906054657 80 190 0.0 0.0 0.00 0.00 0.00 83 1012.3
20260906054152 80 190 0.0 0.0 0.00 0.00 0.00 83 1012.2
20260906053649 80 181 0.0 0.0 0.00 0.00 0.00 82 1012.5
20260906053144 81 176 0.0 0.0 0.00 0.00 0.00 82 1012.3
20260906052639 81 175 0.0 0.0 0.00 0.00 0.00 82 1012.3
20260906052135 81 175 0.0 0.0 0.00 0.00 0.00 82 1012.3
20260906051631 81 179 1.0 1.0 0.00 0.00 0.00 82 1012.3
20260906051126 81 185 1.0 1.0 0.00 0.00 0.00 81 1012.5
20260906050622 81 186 0.0 0.0 0.00 0.00 0.00 81 1012.4
20260906050117 81 186 1.0 1.0 0.00 0.00 0.00 81 1012.0
20260906045615 81 187 1.0 1.0 0.00 0.00 0.00 81 1012.2
20260906045110 81 188 1.0 1.0 0.00 0.00 0.00 81 1012.4
20260906044606 81 188 1.0 2.0 0.00 0.00 0.00 81 1012.4
20260906044101 81 197 0.0 0.0 0.00 0.00 0.00 81 1012.4
20260906043557 82 185 0.0 0.0 0.00 0.00 0.00 80 1012.2
20260906043053 82 185 0.0 0.0 0.00 0.00 0.00 80 1012.1
20260906042551 82 176 0.0 0.0 0.00 0.00 0.00 80 1012.2
20260906042046 82 187 0.0 0.0 0.00 0.00 0.00 80 1012.1
20260906041543 82 170 0.0 0.0 0.00 0.00 0.00 79 1012.5
20260906041037 82 188 0.0 0.0 0.00 0.00 0.00 79 1012.4
20260906040532 82 170 1.0 2.0 0.00 0.00 0.00 79 1012.3
20260906040028 83 171 0.0 0.0 0.00 0.00 0.00 78 1012.5
20260906035523 83 171 0.0 1.0 0.00 0.00 0.00 78 1012.1
20260906035019 83 172 0.0 0.0 0.00 0.00 0.00 77 1012.1
20260906034519 83 187 1.0 2.0 0.00 0.00 0.00 77 1011.8
20260906034014 83 185 1.0 1.0 0.00 0.00 0.00 76 1012.4
20260906033508 83 161 2.0 3.0 0.00 0.00 0.00 76 1012.2
20260906033004 83 184 1.0 2.0 0.00 0.00 0.00 76 1012.3
20260906032500 84 185 2.0 2.0 0.00 0.00 0.00 75 1012.3
20260906031954 84 179 1.0 1.0 0.00 0.00 0.00 75 1012.3
20260906031450 84 167 1.0 2.0 0.00 0.00 0.00 75 1012.6
20260906030946 84 171 1.0 1.0 0.00 0.00 0.00 74 1012.2
20260906030440 84 170 0.0 0.0 0.00 0.00 0.00 74 1012.2
20260906025940 84 169 0.0 0.0 0.00 0.00 0.00 73 1012.0
20260906025434 84 168 0.0 0.0 0.00 0.00 0.00 73 1012.2
20260906024933 85 170 1.0 2.0 0.00 0.00 0.00 72 1012.3
20260906024432 85 174 2.0 2.0 0.00 0.00 0.00 72 1012.2
20260906023927 85 181 0.0 1.0 0.00 0.00 0.00 72 1012.1
20260906023424 85 173 4.0 4.0 0.00 0.00 0.00 71 1011.9
20260906022923 85 167 2.0 2.0 0.00 0.00 0.00 71 1011.9
20260906022419 85 150 1.0 2.0 0.00 0.00 0.00 71 1012.0
20260906021909 85 161 2.0 2.0 0.00 0.00 0.00 70 1011.8
20260906021408 86 149 1.0 4.0 0.00 0.00 0.00 70 1011.8
20260906020903 86 189 4.0 7.0 0.00 0.00 0.00 70 1012.0
20260906020357 86 169 2.0 3.0 0.00 0.00 0.00 70 1011.5
20260906015852 86 169 3.0 4.0 0.00 0.00 0.00 70 1011.4
20260906015351 86 163 2.0 3.0 0.00 0.00 0.00 70 1011.4
20260906014850 86 162 0.0 0.0 0.00 0.00 0.00 69 1011.4
20260906014345 86 156 2.0 3.0 0.00 0.00 0.00 69 1011.5
20260906013841 86 135 4.0 7.0 0.00 0.00 0.00 69 1011.2
20260906013337 86 171 3.0 4.0 0.00 0.00 0.00 68 1011.2
20260906012832 86 173 5.0 8.0 0.00 0.00 0.00 68 1011.3
20260906012327 86 197 4.0 7.0 0.00 0.00 0.00 68 1011.1
20260906011827 86 176 4.0 8.0 0.00 0.00 0.00 68 1011.1
20260906011322 86 161 4.0 8.0 0.00 0.00 0.00 68 1010.9
20260906010818 87 140 0.0 0.0 0.00 0.00 0.00 67 1011.1
20260906010314 87 118 0.0 1.0 0.00 0.00 0.00 67 1011.1
20260906005809 87 128 0.0 0.0 0.00 0.00 0.00 67 1011.2
20260906005308 87 151 5.0 10.0 0.00 0.00 0.00 66 1011.0
20260906004807 87 151 3.0 6.0 0.00 0.00 0.00 66 1011.1
20260906004307 87 156 4.0 4.0 0.00 0.00 0.00 67 1011.2
20260906003802 88 177 2.0 2.0 0.00 0.00 0.00 66 1011.3
20260906003257 89 165 2.0 3.0 0.00 0.00 0.00 64 1011.0
20260906002752 89 56 4.0 7.0 0.00 0.00 0.00 62 1011.0
20260906002247 90 163 4.0 7.0 0.00 0.00 0.00 60 1011.0
20260906001743 91 162 0.0 0.0 0.00 0.00 0.00 58 1010.8
20260906001237 91 118 1.0 3.0 0.00 0.00 0.00 57 1010.7
20260906000733 92 137 2.0 3.0 0.00 0.00 0.00 57 1010.7
20260906000234 95 146 3.0 4.0 0.00 0.00 0.00 54 1010.6
20260905235727 97 149 2.0 2.0 0.00 0.00 0.00 46 1010.7
20260905235227 97 168 2.0 2.0 0.00 0.00 0.00 45 1010.5
20260905234722 97 174 1.0 2.0 0.00 0.00 0.00 45 1010.2
20260905234218 98 140 4.0 6.0 0.00 0.00 0.00 44 1010.2
20260905233713 98 167 2.0 4.0 0.00 0.00 0.00 44 1010.3
20260905233213 98 115 0.0 1.0 0.00 0.00 0.00 43 1010.4
20260905232708 98 145 0.0 1.0 0.00 0.00 0.00 44 1010.2
20260905232203 98 158 1.0 1.0 0.00 0.00 0.00 44 1010.3
20260905231659 98 167 0.0 1.0 0.00 0.00 0.00 44 1010.4
20260905231154 98 165 4.0 8.0 0.00 0.00 0.00 44 1010.4
20260905230650 98 164 2.0 2.0 0.00 0.00 0.00 44 1010.3
20260905230148 98 168 3.0 3.0 0.00 0.00 0.00 44 1010.5
20260905225648 98 134 3.0 4.0 0.00 0.00 0.00 44 1010.3
20260905225143 98 155 0.0 0.0 0.00 0.00 0.00 44 1010.1
20260905224641 98 159 0.0 1.0 0.00 0.00 0.00 44 1010.2
20260905224136 97 165 0.0 0.0 0.00 0.00 0.00 45 1010.3
20260905223633 98 172 2.0 3.0 0.00 0.00 0.00 45 1010.3
20260905223130 98 163 0.0 0.0 0.00 0.00 0.00 44 1010.1
20260905222625 96 157 0.0 0.0 0.00 0.00 0.00 45 1009.9
20260905222120 96 156 0.0 0.0 0.00 0.00 0.00 46 1009.9
20260905221616 96 127 0.0 0.0 0.00 0.00 0.00 45 1010.2
20260905221112 97 135 0.0 1.0 0.00 0.00 0.00 45 1010.3
20260905220607 98 162 0.0 0.0 0.00 0.00 0.00 44 1010.4
20260905220104 99 155 0.0 0.0 0.00 0.00 0.00 43 1010.4
20260905215603 100 81 0.0 0.0 0.00 0.00 0.00 41 1010.3
20260905215059 101 108 1.0 2.0 0.00 0.00 0.00 40 1009.9
20260905214555 102 222 2.0 3.0 0.00 0.00 0.00 39 1010.2
20260905214049 101 178 0.0 0.0 0.00 0.00 0.00 40 1010.3
20260905213544 100 214 2.0 3.0 0.00 0.00 0.00 41 1010.6
20260905213039 99 231 3.0 4.0 0.00 0.00 0.00 42 1010.6
20260905212534 100 174 5.0 6.0 0.00 0.00 0.00 41 1010.6
20260905212034 99 193 1.0 1.0 0.00 0.00 0.00 42 1010.8
20260905211529 99 175 3.0 4.0 0.00 0.00 0.00 42 1010.7
20260905211025 99 199 2.0 2.0 0.00 0.00 0.00 42 1010.6
20260905210520 100 224 4.0 4.0 0.00 0.00 0.00 42 1010.8
20260905210020 99 299 1.0 2.0 0.00 0.00 0.00 43 1010.7
20260905205514 101 166 5.0 6.0 0.00 0.00 0.00 41 1010.9
20260905205013 100 187 0.0 0.0 0.00 0.00 0.00 41 1010.9
20260905204509 100 167 3.0 4.0 0.00 0.00 0.00 41 1011.3
20260905204009 100 185 3.0 6.0 0.00 0.00 0.00 42 1011.1
20260905203504 101 145 3.0 4.0 0.00 0.00 0.00 41 1011.1
20260905202959 100 214 4.0 6.0 0.00 0.00 0.00 40 1011.4
20260905202454 100 219 3.0 4.0 0.00 0.00 0.00 42 1011.3
20260905201950 100 155 0.0 0.0 0.00 0.00 0.00 43 1011.3
20260905201445 99 223 0.0 1.0 0.00 0.00 0.00 43 1011.4
20260905200944 100 190 5.0 6.0 0.00 0.00 0.00 42 1011.3
20260905200441 99 168 1.0 1.0 0.00 0.00 0.00 42 1011.4
20260905195939 99 13 4.0 4.0 0.00 0.00 0.00 44 1011.6
20260905195434 100 216 0.0 0.0 0.00 0.00 0.00 42 1011.9
20260905194930 99 158 1.0 1.0 0.00 0.00 0.00 43 1011.9
20260905194428 99 74 1.0 2.0 0.00 0.00 0.00 43 1011.8
20260905193923 98 164 0.0 0.0 0.00 0.00 0.00 45 1011.9
20260905193418 98 173 5.0 7.0 0.00 0.00 0.00 45 1012.0
20260905192913 99 197 3.0 3.0 0.00 0.00 0.00 44 1012.1
20260905192408 99 171 1.0 1.0 0.00 0.00 0.00 45 1012.2
20260905191903 97 25 4.0 6.0 0.00 0.00 0.00 45 1012.2
20260905191402 97 191 6.0 7.0 0.00 0.00 0.00 46 1012.3
20260905190901 96 165 2.0 3.0 0.00 0.00 0.00 47 1012.6
20260905190354 96 193 9.0 11.0 0.00 0.00 0.00 47 1012.3
20260905185853 96 358 0.0 1.0 0.00 0.00 0.00 47 1012.5
20260905185349 95 197 2.0 2.0 0.00 0.00 0.00 48 1012.7
20260905184848 97 330 0.0 0.0 0.00 0.00 0.00 47 1012.8
20260905184348 97 207 1.0 2.0 0.00 0.00 0.00 48 1012.8
20260905183846 97 253 0.0 0.0 0.00 0.00 0.00 47 1013.0
20260905183342 96 169 2.0 2.0 0.00 0.00 0.00 47 1012.9
20260905182841 96 181 5.0 6.0 0.00 0.00 0.00 47 1013.0
20260905182335 95 232 3.0 3.0 0.00 0.00 0.00 50 1013.1
20260905181831 95 172 2.0 2.0 0.00 0.00 0.00 49 1013.2